Location: Miami, Florida
(25.6830°N, 80.1700°W)
Time: 21:47:31
(UTC-04:00)

Tiangong 2 - Pass Details

Date: 13 November 2017
Orbit: 386 x 391 km, 42.8° (Epoch: 19 November)

Event Time Altitude Azimuth Distance (km) Brightness Sun altitude
Rises 19:55:10 0° 307° (NW) 2,267 5.6 -18.7°
Reaches altitude 10° 19:57:15 10° 308° (NW) 1,410 4.4 -19.2°
Enters shadow 20:00:12 75° 321° (NW) 401 1.1 -19.8°
